Weather in Aleksandrovsky Zavod

Russia / Zabaykalsky Krai     50°55′27″N   117°56′07″E
temp.,
°C
wind,
m/s
gust,
m/s
humid.,
%
clouds,
%
prec.,
mm/h
press.,
hPa
HPBL,
m
24 may, tue
tue2400:00+6n11660 0.0 101310
03:00+5nnw21700 0.0 101512
06:00+5nnw22701 0.0 101634
09:00+12nne712380 0.0 10171439
12:00+16nne7102419 0.0 10172898
15:00+19nne61020100 0.0 10153517
18:00+19n592195 0.0 10153146
21:00+12n223760 0.0 101710
25 may, wed
wed2500:00+9nnw11445 0.0 102011
03:00+8nw11487 0.0 102011
06:00+8wnw11515 0.0 102011
09:00+16nw23345 0.0 1019496
12:00+20n46235 0.0 10162506
15:00+22n462070 0.0 10132797
18:00+22n45218 0.0 10112897
21:00+15nnw11355 0.0 101111
26 may, thu
thu2600:00+13w113715 0.0 101010
03:00+11nw11400 0.0 101010
06:00+10nw11430 0.0 100911
09:00+19wnw12280 0.0 1007339
12:00+23w24175 0.0 10043299
15:00+25wsw571671 0.0 10003872
18:00+24w571758 0.0 9983363
21:00+17sw2231100 0.0 99811
27 may, fri
fri2700:00+15sw223734 0.0 99611
03:00+12wsw114785 0.1 99411
06:00+11wsw224944 0.0 99329
09:00+16wnw68440 0.0 9931122
12:00+19wnw463398 0.0 9912980
15:00+12wsw786895 1.8 9911261
18:00+10nw8116493 4.6 9951360
21:00+7n5106345 4.6 999870
28 may, sat
sat2800:00+4nnw37701 0.0 1000276
03:00+2nnw38734 0.0 1001291
06:00+2nw210721 0.0 1001574
09:00+7nnw710445 0.0 10001247
12:00+12nw79325 0.0 9982087
15:00+14nw710245 0.0 9962860
18:00+14nnw792377 0.0 9963138
21:00+8n22425 0.0 99910